Content
SEND FEEDBACK

Daily
Averages
Monthly
Summary
United States of America

HAMILTON, KANSAS


Home > North America > United States > Kansas
Elevation: 1430 feet     Latitude: 38 01N     Longitude: 096 19W

WEATHER
 
SELECT A DAY
Number of Records: 197,440;   Date Range: 1/1/95 - 8/28/14
 
SHARE

PRINT THIS DATA

[ ← Previous Day ]
WEATHER ALMANAC - JANUARY 19, 2013
[ Next Day → ]
[ °C ]   °F
Weather ElementAverageHighLow
Temperature47.6 °F63 °F (2:53 pm)35.1 °F (11:53 pm)
Dewpoint26.3 °F30 °F (8:53 am)21.9 °F (3:53 pm)
Humidity46.3 %67 % (6:53 am)21 % (3:53 pm)
Barometer30.11 in30.28 in (11:53 pm)30.01 in (4:53 am)
Wind Speed9.9 mph19.6 mph (1:53 am)
Wind Gust27.6 mph (1:53 am)
Weather ElementAverage
Visibility10 mi
Wind DirectionW (265 °)

Weather ElementTotal
Precipitation---
Heating Degree Days16 (Base 65)
Averaged from 22 records on January 19, 2013
WEATHER CONDITIONS BREAKOUT
WIND DIRECTION BREAKOUT
WEATHER BY HOUR - JANUARY 19, 2013
[ °C ]   °F
Local TimeTemperatureDewpointHumidityBarometerVisibilityWind DirectionWind SpeedGust SpeedPrecipitationEventsConditions
1:53 AM44.1 °F28.9 °F55 %30.03 in10.0 miSSW (200°)19.6 mph27.6 mphClear
2:53 AM43.0 °F28.9 °F58 %30.04 in10.0 miSSW (210°)16.1 mphClear
3:53 AM42.1 °F28.9 °F60 %30.03 in10.0 miSW (230°)11.5 mphClear
4:53 AM41.0 °F28.9 °F62 %30.01 in10.0 miSSW (210°)16.1 mphClear
6:53 AM39.0 °F28.9 °F67 %30.04 in10.0 miSSW (210°)11.5 mphClear
7:53 AM39.0 °F28.9 °F67 %30.05 in10.0 miSW (220°)13.8 mphClear
8:53 AM42.1 °F30.0 °F62 %30.05 in10.0 miSW (220°)13.8 mphClear
9:53 AM48.0 °F30.0 °F50 %30.09 in10.0 miWest (260°)12.7 mphClear
10:53 AM52.0 °F27.0 °F38 %30.09 in10.0 miWSW (240°)10.4 mphClear
11:53 AM55.0 °F28.0 °F35 %30.09 in10.0 miNW (310°)12.7 mphClear
12:53 PM57.0 °F27.0 °F32 %30.07 in10.0 miWNW (300°)9.2 mphClear
1:53 PM61.0 °F24.1 °F24 %30.05 in10.0 miNW (320°)9.2 mphClear
2:53 PM63.0 °F24.1 °F23 %30.06 in10.0 miNW (310°)11.5 mph17.3 mphClear
3:53 PM62.1 °F21.9 °F21 %30.09 in10.0 miNNW (330°)9.2 mphClear
4:53 PM57.9 °F24.1 °F27 %30.12 in10.0 miNNW (330°)8.1 mphClear
5:53 PM53.1 °F24.1 °F32 %30.14 in10.0 miWNW (300°)5.8 mphClear
6:53 PM48.0 °F24.1 °F39 %30.17 in10.0 miNW (320°)6.9 mphClear
7:53 PM46.0 °F24.1 °F42 %30.21 in10.0 miNW (320°)5.8 mphClear
8:53 PM39.9 °F24.1 °F53 %30.23 in10.0 miNW (310°)4.6 mphClear
9:53 PM41.0 °F24.1 °F51 %30.24 in10.0 miCalmClear
10:53 PM37.9 °F24.1 °F57 %30.26 in10.0 miNNW (330°)3.5 mphClear
11:53 PM35.1 °F24.1 °F64 %30.28 in10.0 miNorth (350°)5.8 mphClear
Hourly data recorded from KEMP, located miles away from Hamilton, Kansas







STORIES FROM OUR PARTNERS